カタログに戻る

STARLINK-34369

運用中通信VLEO
NORAD 64297·PAYLOAD·🇺🇸 United States

打ち上げ Jun 8, 2025 から Vandenberg Space Force Base

Loading…

次のパス (今後24時間)

TLE

最新Source: CelesTrak SupGP

元期: Sep 15, 2026, 03:11 UTC

1 64297C 25123G   26258.13312500 -.00050049  00000+0 -17412-2 0  2583
2 64297  70.0000  75.2563 0003169 271.8475 103.9650 15.29601283    10

AllMySatでSTARLINK-34369をリアルタイム追跡

Download on the App Store